Location: Winthrop
(48.4780°N, 120.1850°W)
Time: 22:49:44
(UTC-07:00)

A-11 Canister half - Pass Details

Date: 02 June 2023
Orbit: 1515 x 1684 km, 47.2° (Epoch: 29 September)

Event Time Altitude Azimuth Distance (km) Brightness Sun altitude
Exits shadow 01:54:25 16° 159° (SSE) 3,326 10.3 -18.3°
Maximum altitude 01:58:17 21° 130° (SE) 3,010 10.3 -18.1°
Drops below altitude 10° 02:04:47 10° 86° (E) 3,756 11.3 -17.8°
Sets 02:08:46 0° 72° (ENE) 4,718 12.1 -17.6°
